RESURS P5

导读

RESURS-P5(资源P-5)是独联体CIS(俄罗斯)“资源P”系列地球观测卫星的5号星,于2024年12月25日由“联盟2.1b”火箭从拜科努尔发射场送入太阳同步轨道。作为高分辨率光学遥感卫星,它可获取全色、多光谱与高光谱影像,空间分辨率达1米,由俄罗斯航天集团运营,服务于农业、地质、环境监测等领域,接替老旧“资源-DK”卫星,延续俄罗斯对地观测能力。

Basic Information
目录编号:
62430
目录名称:
RESURS P5
国际标识:
2024-250A
轨道中心:
EARTH
卫星名称:
RESURS P5
卫星全名:
RESURS P5
卫星状态:
在轨 (已飞行619 天)
发射日期:
2024-12-25 UTC
国别 :
俄罗斯(独联体) (CIS)
星等 :
--
Orbit Information
数据来源 国际轨道数据
星历时间: 2026-09-05T05:43:55+0800
10小时前
查看轨道信息
半长轴: 6846.594km
偏心率: 0.0000872
轨道倾角: 97.277°
近地点辐角 58.582°
升交点赤经 171.886°
平近点角 301.551°
近地点: 467.859km
远地点: 469.055km
周期: 93.966分钟
每日圈数: 15.324664
Detailed Information
使用方式:
暂无
2D Orbit Map
3D Orbit Map
Orbit Altitude Analysis Chart
Orbit Inclination Analysis Chart
Orbit Comprehensive Analysis Chart
View Comprehensive Chart
Conjunction Data List
Event ID Objects TCA Miss Dist (km) Collision Risk Probability Collision Risk Index (CRI) Action
CDM_260906-032206-168006-243021
2026-09-06T
03:22:31+0000
0.437 km
远距离
2.69797E-4 高风险 0.84
CDM_260907-100705-227406-243021
2026-09-07T
10:07:04+0000
0.541 km
远距离
1.698637E-4 高风险 0.8
CDM_260907-073504-607606-243021
2026-09-07T
07:35:56+0000
0.636 km
远距离
1.112484E-4 高风险 0.76
CDM_260901-175806-243006-264222
2026-09-01T
17:58:25+0000
0.672 km
远距离
9.651763E-5 中风险 0.75
CDM_260906-080406-243006-417221
2026-09-06T
08:04:18+0000
0.681 km
远距离
9.148664E-5 中风险 0.74
CDM_260902-123604-867806-243024
2026-09-02T
12:36:26+0000
0.688 km
远距离
8.973016E-5 中风险 0.74
CDM_260907-095604-832506-243021
2026-09-07T
09:56:43+0000
0.753 km
远距离
6.818025E-5 中风险 0.72
CDM_260905-101204-607906-243022
2026-09-05T
10:12:56+0000
0.780 km
远距离
6.160101E-5 中风险 0.71
CDM_260907-105405-227406-243021
2026-09-07T
10:54:04+0000
0.835 km
远距离
4.949041E-5 中风险 0.69
CDM_260902-132304-867806-243024
2026-09-02T
13:23:27+0000
0.877 km
远距离
4.215864E-5 中风险 0.67